Location: Gorodishche
(49.2733°N, 27.6618°E)
Time: 21:05:22
(UTC+00:00)

Daily predictions for brighter satellites

Satellite Brightness Start Highest point End
(mag) Time Altitude Azimuth Time Altitude Azimuth Time Altitude Azimuth
Cosmos 2369 Rocket 2.9 15:21:27 10° SW 15:27:03 57° WNW 15:32:42 10° NNE
NOAA 12 4.2 15:27:52 10° SSE 15:33:09 88° ENE 15:38:31 10° NNW
Cosmos 2279 Rocket 4.4 15:28:45 10° SSW 15:34:59 72° W 15:41:15 10° N
Cosmos 1939 Rocket 3.5 15:31:32 10° SE 15:35:07 33° ENE 15:38:40 10° N
Cosmos 1452 Rocket 3.5 15:30:53 10° SSW 15:36:07 72° ESE 15:41:24 10° NNE
COSMO-SKYMED 1 3.6 15:32:31 10° NE 15:36:12 26° E 15:39:52 10° SSE
Cosmos 304 Rocket 3.9 15:31:58 10° SSW 15:36:46 84° WNW 15:41:35 10° NNE
ADEOS Rocket 3.4 15:32:07 10° NNE 15:38:20 81° WNW 15:45:14 10° SSW
NOSS 2-1 (E) 3.7 15:35:07 10° WSW 15:38:23 53° NW 15:42:04 10° NE
Okean O Rocket 1.9 15:36:00 10° S 15:40:22 73° WSW 15:44:45 10° NNW
H-2A R/B 3.4 15:36:33 10° ESE 15:40:33 21° ENE 15:44:33 10° N
Cosmos 2098 Rocket 3.5 15:39:28 10° NNW 15:42:39 46° W 15:45:29 10° SSW
FALCON 9 DEB 3.5 15:39:22 10° W 15:42:45 56° NNW 15:46:09 10° ENE
H-2A R/B 2.7 15:39:51 10° N 15:44:00 57° WNW 15:48:02 10° SSW
Cosmos 1689 Rocket 3.4 15:41:56 10° NE 15:44:13 21° E 15:46:28 10° SSE
IRS-1C Rocket 4.3 15:40:01 10° SE 15:45:05 52° ENE 15:50:13 10° N
Cosmos 1328 3.7 15:41:39 10° N 15:45:38 79° E 15:49:34 10° SSE
CORIOLIS 4.3 15:40:31 10° SSE 15:45:52 80° WSW 15:51:16 10° NNW
USA 281 3.9 15:40:17 10° SSE 15:46:46 62° WSW 15:53:18 10° NNW
Cosmos 1825 Rocket 3.6 15:45:54 10° N 15:50:21 61° ENE 15:54:44 10° SSE
Cosmos 1340 3.9 15:47:47 10° NNE 15:50:47 22° ENE 15:53:46 10° ESE
Cosmos 1356 Rocket 3.7 15:46:34 10° SSW 15:50:49 74° WNW 15:55:09 10° N
Cosmos 2219 3.8 15:47:01 10° NNW 15:52:23 38° NE 15:57:44 10° ESE
CZ-4 R/B 2.1 15:49:19 10° SE 15:52:43 29° ENE 15:56:05 10° N
ERS-2 2.1 15:50:05 10° NNE 15:53:45 87° ESE 15:57:23 10° SSW
Lacrosse 5 2.6 15:49:50 10° W 15:54:44 47° NNW 15:59:39 10° NE
YAOGAN 1 3.4 15:51:39 10° SE 15:55:25 30° ENE 15:59:12 10° N
BREEZE-M R/B 4.1 15:44:03 10° W 15:55:45 87° S 15:58:24 14° E
CZ-4C R/B 4.1 15:56:12 10° NW 16:01:02 23° N 16:06:35 10° NE
ERBS 3.7 15:59:17 10° W 16:02:19 31° NNW 16:05:10 11° NE
Meteor 2-14 Rocket 4.4 15:57:24 10° N 16:03:36 85° E 16:09:45 10° S
Cosmos 44 4.0 16:01:56 10° S 16:05:50 30° ESE 16:09:11 14° ENE
SAR-Lupe-4 3.5 16:02:16 10° NNE 16:05:51 65° ESE 16:09:25 10° S
CZ-4B R/B 1.6 16:03:15 10° N 16:06:32 71° WNW 16:09:43 10° SSW
Cosmos 1400 Rocket 3.7 16:03:41 10° SSE 16:07:13 28° E 16:10:45 10° NNE
Cosmos 1758 Rocket 3.9 16:03:11 10° NNW 16:07:36 71° W 16:11:57 10° S
USA 305 3.5 16:03:33 10° WNW 16:07:42 44° N 16:10:43 17° ENE
Okean-O 2.8 16:03:58 10° SE 16:08:14 49° ENE 16:12:31 10° N
Cosmos 1726 Rocket 3.7 16:04:30 10° S 16:08:41 50° E 16:12:56 10° NNE
Cosmos 1943 Rocket 4.3 16:08:47 10° W 16:13:04 22° NW 16:17:21 10° N
Cosmos 1818 4.3 16:08:34 10° WSW 16:13:52 52° NW 16:19:13 10° NNE
USA 306 3.5 16:09:48 10° WNW 16:13:57 45° N 16:16:40 19° ENE
Aureole 3 3.4 16:14:30 10° SSE 16:17:27 31° E 16:19:32 15° NE
NOSS 2-2 (D) 4.4 16:13:28 10° NW 16:18:43 67° NE 16:26:01 10° SE
Cosmos 1331 Rocket 3.9 16:14:47 10° S 16:19:54 68° ESE 16:25:02 10° NNE
Cosmos 1244 Rocket 4.4 16:14:45 10° N 16:20:57 68° ENE 16:27:09 10° SSE
Cosmos 1606 Rocket 3.5 16:18:40 10° S 16:23:02 88° E 16:27:28 10° N
ATLAS 5 CENTAUR R/B 3.4 16:19:30 10° W 16:23:10 25° NNW 16:27:16 10° NNE
SAR-Lupe-1 4.1 16:19:58 10° NNE 16:23:35 84° WNW 16:27:10 10° SSW
SKYMED 2 3.5 16:20:08 10° NNE 16:24:30 77° ESE 16:28:51 10° S
FALCON 9 DEB 4.5 16:24:57 10° S 16:27:27 21° SE 16:27:29 21° SE
CZ-2C R/B 3.3 16:21:52 10° SSE 16:27:35 61° ENE 16:33:11 10° N
Cosmos 2228 3.1 16:23:23 10° SSW 16:27:38 79° WNW 16:31:56 10° N
GENESIS II 4.3 16:25:47 10° SSW 16:29:44 58° SE 16:32:04 23° NE
SL-4 R/B 1.9 16:27:14 10° W 16:30:45 61° N 16:32:26 29° ENE
Cosmos 292 Rocket 3.7 16:26:02 10° S 16:30:45 64° ESE 16:35:33 10° NNE
Cosmos 2227 Rocket 2.3 16:25:22 10° NNW 16:30:55 53° NE 16:35:15 16° SE
ARGOS 3.6 16:27:37 13° SE 16:32:02 38° ENE 16:37:02 10° N
USA 215 3.5 16:30:07 21° E 16:34:29 55° NNE 16:40:50 10° WNW
Meteor 2-10 Rocket 4.1 16:30:19 10° SSE 16:35:01 32° E 16:39:36 10° NNE
FALCON 9 DEB 4.3 16:32:23 10° SSW 16:34:54 24° SE 16:34:54 24° SE
ATLAS 2AS CENTAUR R/B 3.9 16:29:41 10° NW 16:36:30 32° NNE 16:40:27 20° ENE
Cosmos 1346 Rocket 3.4 16:33:04 10° N 16:36:46 34° ENE 16:37:17 33° E
SeaSat 1 2.6 16:35:05 21° ESE 16:38:15 52° NE 16:43:03 10° NNW
Cosmos 1656 4.1 16:36:25 10° S 16:41:31 39° ESE 16:44:50 20° NE
Cosmos 2263 Rocket 3.8 16:37:49 10° N 16:41:36 18° NE 16:42:32 17° NE
Cosmos 1892 2.8 16:38:15 10° N 16:42:04 53° ENE 16:44:14 23° SE
FALCON 9 DEB 4.3 16:40:12 10° SSW 16:42:33 26° SSE 16:42:33 26° SSE
Cosmos 968 Rocket 3.6 16:38:39 10° NNW 16:43:49 55° ENE 16:46:53 23° SE
CSL-04 Rocket 3.7 16:39:17 10° SSE 16:44:45 63° ENE 16:50:14 10° N
CZ-2D R/B 3.8 16:41:11 10° S 16:44:57 59° W 16:48:44 10° NNW
Cosmos 1110 Rocket 4.3 16:40:18 10° SSW 16:45:33 71° WNW 16:50:48 10° NNE
Cosmos 1302 Rocket 3.9 16:43:10 10° S 16:48:21 63° ESE 16:53:35 10° NNE
Cosmos 1953 Rocket 4.4 16:45:06 10° NNW 16:49:23 52° W 16:53:40 10° S
Cosmos 2058 Rocket 3.0 16:45:01 10° S 16:49:28 83° E 16:54:01 10° NNE
Cosmos 1486 Rocket 4.0 16:44:39 10° NNW 16:49:59 64° ENE 16:53:23 22° SE
Cosmos 1697 Rocket 4.0 16:48:30 10° SSE 16:51:02 21° SE 16:51:02 21° SE
USA 307 3.2 16:51:35 10° WNW 16:55:48 54° NNE 16:56:43 44° ENE
Cosmos 1300 3.7 16:52:33 10° SSW 16:56:15 48° WNW 16:59:59 10° N
HJ-1C 3.4 16:57:03 60° NE 16:57:03 60° NE 17:00:04 10° N
FALCON 9 DEB 4.3 16:54:44 10° SSW 16:56:48 29° S 16:56:48 29° S
Cosmos 1503 Rocket 4.3 16:54:06 10° NNW 16:59:08 46° ENE 17:00:07 41° E
S3M 3.9 16:53:20 10° SSE 16:59:15 56° E 17:05:17 10° NNE
GEOS 3 Rocket 3.9 16:55:36 15° SSE 17:00:00 70° SW 17:05:25 10° NW
USA 308 3.1 16:56:20 10° WNW 17:00:34 55° NNE 17:01:16 48° NE
Helios 1A Rocket 4.2 16:57:55 10° S 17:01:51 42° W 17:05:47 10° NNW
DMSP B5D1-3 4.4 16:56:57 10° NNE 17:02:06 68° ESE 17:07:14 10° S
BREEZE-M R/B 3.7 16:59:12 10° W 17:03:19 86° N 17:06:24 36° E
CRYOSAT 2 4.2 16:59:54 10° N 17:04:46 66° E 17:09:35 10° S
Cosmos 1354 Rocket 4.2 17:03:37 10° NNW 17:08:44 49° ENE 17:09:13 47° ENE
Cosmos 2297 Rocket 2.4 17:05:45 10° NNW 17:11:25 72° WSW 17:15:53 17° SSE
Cosmos 1417 Rocket 4.4 17:05:23 10° S 17:11:37 84° E 17:17:59 10° N
Cosmos 1825 3.8 17:08:02 10° N 17:09:40 23° N 17:09:40 23° N
COSMO-SKYMED 1 4.1 17:08:27 10° N 17:12:27 37° WNW 17:16:27 10° SW
Cosmos 1408 3.3 17:13:37 10° N 17:16:13 45° N 17:16:13 45° N
MOS 1 Rocket 3.1 17:14:12 10° NNE 17:18:47 87° ESE 17:23:38 10° SSW
Aureole 3 Rocket 3.9 17:15:18 10° SSW 17:19:00 51° WNW 17:24:03 10° N
H-2A R/B 2.3 17:14:01 10° S 17:19:24 74° WSW 17:24:53 10° NNW
FALCON 9 DEB 4.3 17:16:49 10° WNW 17:19:24 37° NNW 17:19:24 37° NNW
Cosmos 2058 2.9 17:17:10 10° NNW 17:21:18 79° W 17:21:44 68° SSW
CSL-04 Debris 4.5 17:15:58 10° S 17:21:21 67° WSW 17:26:49 10° NNW
SL-08 RB Rocket 3.8 17:25:04 61° NNE 17:25:04 61° NNE 17:28:56 10° N
Timation 1 Rocket 4.4 17:18:45 10° NNW 17:24:40 54° NE 17:25:13 53° ENE
Cosmos 1340 4.4 17:23:03 10° NNW 17:26:27 33° W 17:29:52 10° SSW
CZ-4 R/B 3.4 17:24:21 10° SSW 17:27:43 27° W 17:31:05 10° NW
Cosmos 1553 Rocket 4.3 17:24:20 10° SSW 17:30:40 67° WNW 17:36:57 10° N
YAOGAN 1 4.2 17:27:33 10° SSW 17:31:27 33° W 17:35:24 10° NNW
Cosmos 1076 Rocket 3.9 17:30:43 10° NNW 17:34:10 57° NNW 17:34:10 57° NNW
Cosmos 2219 4.2 17:31:12 10° NW 17:36:40 45° WSW 17:41:21 14° S
Ariane Rocket 3.2 17:38:38 58° NNE 17:38:38 58° NNE 17:42:55 10° N
Lacrosse 5 2.9 17:33:58 10° WNW 17:38:36 34° N 17:38:57 34° N
Geosat 4.5 17:36:58 20° NNE 17:40:20 58° NW 17:45:16 10° SW
MetOp-A 4.3 17:43:06 58° NNE 17:43:06 58° NNE 17:47:36 10° N
Cosmos 44 4.0 17:42:27 10° WSW 17:46:52 47° NW 17:47:38 43° NNW
Cosmos 2082 3.7 17:42:01 10° NNW 17:47:46 79° WSW 17:48:23 70° S
USA 305 3.8 17:43:45 10° WNW 17:46:51 46° WNW 17:46:51 46° WNW
CZ-4C R/B 3.6 17:45:29 10° NW 17:51:33 35° NNE 17:52:05 35° NE
USA 306 4.1 17:49:58 10° WNW 17:52:49 41° WNW 17:52:49 41° WNW
NOSS 3-4 (A) 3.8 17:59:38 10° NW 18:06:19 65° NE 18:06:19 65° NE
NOSS 3-4 (C) 3.8 17:59:44 10° NW 18:06:24 65° NE 18:06:24 65° NE
ATLAS 5 CENTAUR R/B 4.1 18:06:25 10° NW 18:09:30 17° N 18:09:34 17° N
IRS-1A Rocket 4.5 18:10:09 67° WNW 18:10:09 67° WNW 18:15:16 10° NNW
SL-4 R/B 4.4 18:06:52 10° WNW 18:08:01 19° WNW 18:08:01 19° WNW
ARGOS 4.5 18:09:09 20° SSW 18:12:19 37° W 18:17:21 10° NNW
Cosmos 2227 Rocket 3.8 18:09:52 10° NW 18:14:42 30° WSW 18:17:08 22° SW
SeaSat 1 4.1 18:14:54 26° SW 18:15:58 28° WSW 18:20:14 10° NW
USA 215 3.2 18:17:28 76° SW 18:17:28 76° SW 18:23:57 10° WNW
Cosmos 2263 Rocket 3.4 18:20:59 10° NNW 18:24:14 35° NNW 18:24:14 35° NNW
ATLAS 2AS CENTAUR R/B 3.0 18:21:13 10° NW 18:27:53 63° N 18:27:53 63° N
CZ-4C R/B 4.2 19:33:54 10° NW 19:37:16 33° NW 19:37:16 33° NW
